TimeCDT,TemperatureF,Dew PointF,Humidity,Sea Level PressureIn,VisibilityMPH,Wind Direction,Wind SpeedMPH,Gust SpeedMPH,PrecipitationIn,Events,Conditions,WindDirDegrees,DateUTC
12:15 AM,55.4,39.2,54,29.66,10.0,West,3.5,-,N/A,,Scattered Clouds,280,2014-03-19 05:15:00
12:35 AM,55.4,37.4,51,29.65,10.0,WSW,4.6,-,N/A,,Clear,250,2014-03-19 05:35:00
12:55 AM,51.8,35.6,54,29.65,10.0,SSW,6.9,-,N/A,,Clear,210,2014-03-19 05:55:00
1:15 AM,50.0,35.6,58,29.65,10.0,SSW,8.1,-,N/A,,Clear,200,2014-03-19 06:15:00
1:35 AM,51.8,35.6,54,29.66,10.0,SW,6.9,-,N/A,,Clear,230,2014-03-19 06:35:00
1:55 AM,53.6,35.6,51,29.67,10.0,SW,8.1,-,N/A,,Partly Cloudy,230,2014-03-19 06:55:00
2:15 AM,53.6,35.6,51,29.68,10.0,SW,5.8,-,N/A,,Scattered Clouds,230,2014-03-19 07:15:00
2:35 AM,51.8,35.6,54,29.69,10.0,WSW,9.2,-,N/A,,Overcast,240,2014-03-19 07:35:00
2:55 AM,51.8,33.8,50,29.70,10.0,WSW,11.5,19.6,N/A,,Overcast,250,2014-03-19 07:55:00
3:15 AM,50.0,33.8,54,29.71,10.0,WSW,17.3,25.3,N/A,,Overcast,250,2014-03-19 08:15:00
3:35 AM,48.2,33.8,58,29.72,10.0,West,12.7,26.5,N/A,,Mostly Cloudy,260,2014-03-19 08:35:00
3:55 AM,46.4,32.0,57,29.73,10.0,WSW,15.0,21.9,N/A,,Mostly Cloudy,250,2014-03-19 08:55:00
4:15 AM,44.6,30.2,57,29.75,10.0,WSW,17.3,23.0,N/A,,Partly Cloudy,240,2014-03-19 09:15:00
4:35 AM,42.8,30.2,61,29.76,10.0,West,15.0,25.3,N/A,,Clear,270,2014-03-19 09:35:00
4:55 AM,42.8,30.2,61,29.78,10.0,West,17.3,23.0,N/A,,Clear,260,2014-03-19 09:55:00
5:15 AM,42.8,30.2,61,29.79,10.0,West,13.8,-,N/A,,Mostly Cloudy,260,2014-03-19 10:15:00
5:35 AM,42.8,30.2,61,29.81,10.0,West,10.4,19.6,N/A,,Overcast,260,2014-03-19 10:35:00
5:55 AM,42.8,32.0,66,29.82,10.0,West,10.4,17.3,N/A,,Overcast,280,2014-03-19 10:55:00
6:15 AM,42.8,32.0,66,29.83,10.0,West,10.4,20.7,N/A,,Overcast,280,2014-03-19 11:15:00
6:35 AM,42.8,33.8,70,29.85,10.0,West,12.7,19.6,N/A,,Overcast,280,2014-03-19 11:35:00
6:55 AM,42.8,33.8,70,29.87,8.0,West,13.8,24.2,N/A,,Overcast,280,2014-03-19 11:55:00
7:15 AM,41.0,32.0,70,29.90,9.0,WNW,11.5,23.0,N/A,,Overcast,300,2014-03-19 12:15:00
7:35 AM,39.2,32.0,75,29.92,8.0,WNW,9.2,18.4,N/A,,Overcast,300,2014-03-19 12:35:00
7:55 AM,39.2,30.2,70,29.93,8.0,WNW,12.7,24.2,N/A,,Overcast,290,2014-03-19 12:55:00
8:15 AM,39.2,30.2,70,29.95,7.0,NW,4.6,19.6,N/A,,Overcast,320,2014-03-19 13:15:00
8:35 AM,39.2,30.2,70,29.96,8.0,NW,8.1,20.7,N/A,,Overcast,310,2014-03-19 13:35:00
8:55 AM,39.2,30.2,70,29.98,7.0,WNW,10.4,18.4,N/A,,Overcast,290,2014-03-19 13:55:00
9:15 AM,37.4,28.4,70,29.99,7.0,WNW,9.2,18.4,N/A,,Overcast,300,2014-03-19 14:15:00
9:35 AM,37.4,28.4,70,30.01,7.0,WNW,12.7,20.7,N/A,,Overcast,300,2014-03-19 14:35:00
9:55 AM,39.2,28.4,65,30.02,9.0,WNW,10.4,17.3,N/A,,Overcast,300,2014-03-19 14:55:00
10:15 AM,39.2,28.4,65,30.04,9.0,WNW,9.2,20.7,N/A,,Overcast,300,2014-03-19 15:15:00
10:35 AM,39.2,28.4,65,30.05,9.0,WNW,11.5,19.6,N/A,,Overcast,290,2014-03-19 15:35:00
10:55 AM,39.2,28.4,65,30.06,9.0,WNW,12.7,19.6,N/A,,Overcast,290,2014-03-19 15:55:00
11:15 AM,39.2,28.4,65,30.07,10.0,West,10.4,18.4,N/A,,Overcast,280,2014-03-19 16:15:00
11:35 AM,41.0,28.4,61,30.08,10.0,West,11.5,17.3,N/A,,Overcast,280,2014-03-19 16:35:00
11:55 AM,41.0,28.4,61,30.09,10.0,WNW,12.7,19.6,N/A,,Overcast,290,2014-03-19 16:55:00
12:15 PM,42.8,28.4,57,30.09,10.0,WNW,11.5,20.7,N/A,,Overcast,290,2014-03-19 17:15:00
12:35 PM,42.8,28.4,57,30.09,10.0,West,15.0,20.7,N/A,,Overcast,270,2014-03-19 17:35:00
12:55 PM,42.8,28.4,57,30.11,10.0,NW,9.2,17.3,N/A,,Overcast,310,2014-03-19 17:55:00
1:15 PM,42.8,28.4,57,30.11,10.0,West,10.4,19.6,N/A,,Overcast,280,2014-03-19 18:15:00
1:35 PM,44.6,28.4,53,30.12,10.0,West,10.4,20.7,N/A,,Overcast,270,2014-03-19 18:35:00
1:55 PM,44.6,28.4,53,30.11,10.0,West,9.2,18.4,N/A,,Overcast,270,2014-03-19 18:55:00
2:15 PM,46.4,28.4,50,30.11,10.0,West,13.8,19.6,N/A,,Overcast,260,2014-03-19 19:15:00
2:35 PM,46.4,30.2,53,30.10,10.0,West,12.7,20.7,N/A,,Overcast,270,2014-03-19 19:35:00
2:55 PM,48.2,28.4,46,30.10,10.0,WNW,13.8,18.4,N/A,,Scattered Clouds,290,2014-03-19 19:55:00
3:15 PM,48.2,28.4,46,30.10,10.0,West,11.5,21.9,N/A,,Clear,260,2014-03-19 20:15:00
3:35 PM,50.0,26.6,40,30.10,10.0,WNW,11.5,18.4,N/A,,Clear,290,2014-03-19 20:35:00
3:55 PM,51.8,26.6,38,30.10,10.0,West,10.4,19.6,N/A,,Clear,280,2014-03-19 20:55:00
4:15 PM,51.8,26.6,38,30.09,10.0,West,15.0,20.7,N/A,,Clear,260,2014-03-19 21:15:00
4:35 PM,51.8,28.4,41,30.09,10.0,West,8.1,-,N/A,,Clear,270,2014-03-19 21:35:00
4:55 PM,51.8,26.6,38,30.10,10.0,West,10.4,20.7,N/A,,Clear,260,2014-03-19 21:55:00
5:15 PM,53.6,26.6,35,30.09,10.0,West,12.7,-,N/A,,Clear,270,2014-03-19 22:15:00
5:35 PM,53.6,26.6,35,30.09,10.0,WNW,12.7,-,N/A,,Clear,290,2014-03-19 22:35:00
5:55 PM,53.6,26.6,35,30.09,10.0,West,10.4,-,N/A,,Clear,260,2014-03-19 22:55:00
6:15 PM,53.6,24.8,33,30.09,10.0,WNW,9.2,-,N/A,,Clear,290,2014-03-19 23:15:00
6:35 PM,51.8,24.8,35,30.10,10.0,West,8.1,-,N/A,,Clear,270,2014-03-19 23:35:00
6:55 PM,51.8,24.8,35,30.10,10.0,West,9.2,-,N/A,,Clear,270,2014-03-19 23:55:00
7:15 PM,51.8,24.8,35,30.11,10.0,WNW,6.9,-,N/A,,Clear,290,2014-03-20 00:15:00
7:35 PM,50.0,24.8,37,30.11,10.0,West,6.9,-,N/A,,Clear,270,2014-03-20 00:35:00
7:55 PM,48.2,24.8,40,30.12,10.0,West,6.9,-,N/A,,Clear,270,2014-03-20 00:55:00
8:15 PM,48.2,24.8,40,30.12,10.0,West,4.6,-,N/A,,Clear,270,2014-03-20 01:15:00
8:35 PM,46.4,24.8,43,30.13,10.0,Calm,Calm,-,N/A,,Clear,0,2014-03-20 01:35:00
8:55 PM,44.6,24.8,46,30.14,10.0,West,3.5,-,N/A,,Clear,280,2014-03-20 01:55:00
9:15 PM,44.6,24.8,46,30.15,10.0,Calm,Calm,-,N/A,,Clear,0,2014-03-20 02:15:00
9:35 PM,42.8,26.6,53,30.15,10.0,Calm,Calm,-,N/A,,Clear,0,2014-03-20 02:35:00
9:55 PM,42.8,24.8,49,30.16,10.0,Calm,Calm,-,N/A,,Clear,0,2014-03-20 02:55:00
10:15 PM,39.2,24.8,56,30.16,10.0,Calm,Calm,-,N/A,,Clear,0,2014-03-20 03:15:00
10:35 PM,37.4,24.8,60,30.17,10.0,Calm,Calm,-,N/A,,Clear,0,2014-03-20 03:35:00
10:55 PM,39.2,24.8,56,30.17,10.0,Calm,Calm,-,N/A,,Clear,0,2014-03-20 03:55:00
11:15 PM,35.6,24.8,65,30.17,10.0,Calm,Calm,-,N/A,,Clear,0,2014-03-20 04:15:00
11:35 PM,37.4,23.0,56,30.17,10.0,Calm,Calm,-,N/A,,Clear,0,2014-03-20 04:35:00
11:55 PM,33.8,24.8,70,30.17,10.0,Calm,Calm,-,N/A,,Clear,0,2014-03-20 04:55:00